Zurück zum Katalog

FENGYUN 1C DEB

AktivPO
NORAD 30629·DEBRIS·🇨🇳 China

Gestartet May 10, 1999 von Taiyuan Satellite Launch Center

Loading…

Nächste Überflüge (nächste 24 Stunden)

TLE

AktuellSource: Space-Track

Epoche: Sep 14, 2026, 14:38 UTC

1 30629U 99025ANL 26257.60988634  .00008962  00000-0  15984-2 0  9995
2 30629  99.2564  32.1608 0006603  81.8668 340.6955 14.67257549 19258

Verfolge FENGYUN 1C DEB in Echtzeit mit AllMySat

Download on the App Store